• In Germany
  • List of Countries
  • For 7 days
  • Water Temperature
  • Satellite Maps
  • Weather Map
  • Weather Widgets
  • user-avatar
    Login

    Hourly Weather Ngo

    Today, 21 September, Thursday

    Time Temperature Precipitation Wind Pressure Humidity
    00:00 +26°C° 0.5 mm 1 mps 709 mmHg 75%
    01:00 +25°C° 0 mm 1 mps 709 mmHg 73%
    02:00 +25°C° 0 mm 1 mps 709 mmHg 74%
    03:00 +25°C° 0 mm 1 mps 709 mmHg 75%
    04:00 +25°C° 0 mm 1 mps 709 mmHg 76%
    05:00 +25°C° 0 mm 1 mps 709 mmHg 74%
    06:00 +26°C° 0 mm 1 mps 710 mmHg 72%
    07:00 +27°C° 0 mm 1 mps 711 mmHg 67%
    08:00 +30°C° 0.1 mm 1 mps 711 mmHg 59%
    09:00 +32°C° 0.1 mm 1 mps 711 mmHg 51%
    10:00 +35°C° 0.1 mm 1 mps 711 mmHg 42%
    11:00 +35°C° 0 mm 1 mps 711 mmHg 42%
    12:00 +33°C° 0 mm 0 mps 710 mmHg 42%
    13:00 +35°C° 0 mm 2 mps 709 mmHg 40%
    14:00 +35°C° 0 mm 2 mps 708 mmHg 40%
    15:00 +34°C° 0 mm 1 mps 708 mmHg 40%
    16:00 +34°C° 0 mm 1 mps 708 mmHg 40%
    17:00 +33°C° 0 mm 1 mps 708 mmHg 44%
    18:00 +31°C° 0 mm 1 mps 708 mmHg 48%
    19:00 +30°C° 0 mm 1 mps 708 mmHg 52%
    20:00 +29°C° 0.2 mm 1 mps 708 mmHg 57%
    21:00 +28°C° 0.2 mm 1 mps 708 mmHg 61%
    22:00 +27°C° 0.2 mm 2 mps 709 mmHg 65%
    23:00 +27°C° 0.2 mm 2 mps 709 mmHg 69%

    Tomorrow, 22 September, Friday

    Time Temperature Precipitation Wind Pressure Humidity
    00:00 +26°C° 0.2 mm 2 mps 709 mmHg 73%
    01:00 +26°C° 0.2 mm 3 mps 709 mmHg 77%
    02:00 +25°C° 0.8 mm 3 mps 709 mmHg 80%
    03:00 +25°C° 0.8 mm 3 mps 709 mmHg 82%
    04:00 +24°C° 0.8 mm 3 mps 709 mmHg 85%
    05:00 +24°C° 0.5 mm 3 mps 709 mmHg 85%
    06:00 +24°C° 0.5 mm 3 mps 710 mmHg 85%
    07:00 +24°C° 0.5 mm 3 mps 710 mmHg 85%
    08:00 +25°C° 1.7 mm 3 mps 711 mmHg 83%
    09:00 +25°C° 1.7 mm 3 mps 711 mmHg 82%
    10:00 +25°C° 1.7 mm 3 mps 712 mmHg 81%
    11:00 +26°C° 1.5 mm 3 mps 711 mmHg 79%
    12:00 +27°C° 1.5 mm 3 mps 711 mmHg 76%
    13:00 +27°C° 1.5 mm 2 mps 710 mmHg 74%
    14:00 +28°C° 0.1 mm 2 mps 709 mmHg 72%
    15:00 +28°C° 0.1 mm 2 mps 709 mmHg 70%
    16:00 +28°C° 0.1 mm 2 mps 708 mmHg 68%
    17:00 +27°C° 0 mm 2 mps 708 mmHg 72%
    18:00 +26°C° 0 mm 1 mps 708 mmHg 76%
    19:00 +25°C° 0 mm 1 mps 708 mmHg 80%
    20:00 +25°C° 0 mm 1 mps 709 mmHg 82%
    21:00 +24°C° 0 mm 1 mps 709 mmHg 83%
    22:00 +24°C° 0 mm 1 mps 710 mmHg 84%
    23:00 +24°C° 0.1 mm 2 mps 710 mmHg 85%

    Day after tomorrow, 23 September, Saturday

    Time Temperature Precipitation Wind Pressure Humidity
    00:00 +24°C° 0.1 mm 2 mps 710 mmHg 85%
    01:00 +24°C° 0.1 mm 2 mps 710 mmHg 85%
    02:00 +23°C° 0.2 mm 2 mps 710 mmHg 86%
    03:00 +23°C° 0.2 mm 2 mps 709 mmHg 86%
    04:00 +23°C° 0.2 mm 2 mps 709 mmHg 86%
    05:00 +24°C° 0.1 mm 2 mps 710 mmHg 85%
    06:00 +24°C° 0.1 mm 3 mps 710 mmHg 83%
    07:00 +25°C° 0.1 mm 3 mps 711 mmHg 81%
    08:00 +27°C° 0 mm 3 mps 711 mmHg 73%
    09:00 +29°C° 0 mm 3 mps 712 mmHg 64%
    10:00 +31°C° 0 mm 3 mps 712 mmHg 55%
    11:00 +33°C° 0.6 mm 3 mps 711 mmHg 52%
    12:00 +34°C° 0.6 mm 2 mps 710 mmHg 48%
    13:00 +35°C° 0.6 mm 2 mps 709 mmHg 44%
    14:00 +34°C° 0.1 mm 2 mps 709 mmHg 46%
    15:00 +34°C° 0.1 mm 2 mps 708 mmHg 47%
    16:00 +32°C° 0.1 mm 2 mps 708 mmHg 49%
    17:00 +31°C° 0.2 mm 2 mps 708 mmHg 55%
    18:00 +29°C° 0.2 mm 2 mps 708 mmHg 61%
    19:00 +28°C° 0.2 mm 2 mps 709 mmHg 67%
    20:00 +27°C° 0.2 mm 2 mps 709 mmHg 70%
    21:00 +26°C° 0.2 mm 2 mps 710 mmHg 74%
    22:00 +26°C° 0.2 mm 2 mps 710 mmHg 77%
    23:00 +26°C° 0.1 mm 2 mps 710 mmHg 78%

    24 September, Sunday

    Time Temperature Precipitation Wind Pressure Humidity
    00:00 +25°C° 0.1 mm 2 mps 710 mmHg 79%
    01:00 +25°C° 0.1 mm 2 mps 710 mmHg 80%
    02:00 +25°C° 0 mm 2 mps 710 mmHg 81%
    03:00 +24°C° 0 mm 2 mps 710 mmHg 82%
    04:00 +24°C° 0 mm 3 mps 710 mmHg 83%
    05:00 +24°C° 0.5 mm 3 mps 710 mmHg 83%
    06:00 +25°C° 0.5 mm 3 mps 711 mmHg 82%
    07:00 +25°C° 0.5 mm 3 mps 711 mmHg 82%
    08:00 +27°C° 0.1 mm 3 mps 712 mmHg 74%
    09:00 +29°C° 0.1 mm 3 mps 712 mmHg 66%
    10:00 +31°C° 0.1 mm 3 mps 712 mmHg 57%
    11:00 +33°C° 0 mm 3 mps 711 mmHg 54%
    12:00 +34°C° 0 mm 3 mps 710 mmHg 50%
    13:00 +35°C° 0 mm 3 mps 709 mmHg 46%
    14:00 +34°C° 0.2 mm 3 mps 709 mmHg 48%
    15:00 +32°C° 0.2 mm 2 mps 708 mmHg 49%
    16:00 +32°C° 0.2 mm 2 mps 708 mmHg 51%
    17:00 +30°C° 0.4 mm 2 mps 708 mmHg 57%
    18:00 +29°C° 0.4 mm 2 mps 708 mmHg 64%
    19:00 +27°C° 0.4 mm 2 mps 709 mmHg 70%
    20:00 +27°C° 0.1 mm 2 mps 709 mmHg 72%
    21:00 +26°C° 0.1 mm 2 mps 709 mmHg 75%
    22:00 +25°C° 0.1 mm 2 mps 710 mmHg 77%
    23:00 +25°C° 0.1 mm 2 mps 709 mmHg 78%

    25 September, Monday

    Time Temperature Precipitation Wind Pressure Humidity
    00:00 +25°C° 0.1 mm 2 mps 709 mmHg 78%
    01:00 +25°C° 0.1 mm 2 mps 709 mmHg 79%
    02:00 +25°C° 0.1 mm 2 mps 709 mmHg 81%
    03:00 +24°C° 0.1 mm 2 mps 709 mmHg 82%
    04:00 +24°C° 0.1 mm 2 mps 709 mmHg 84%
    05:00 +24°C° 0.1 mm 2 mps 710 mmHg 83%
    06:00 +24°C° 0.1 mm 3 mps 710 mmHg 82%
    07:00 +25°C° 0.1 mm 3 mps 711 mmHg 81%
    08:00 +26°C° 0.4 mm 3 mps 711 mmHg 77%
    09:00 +27°C° 0.4 mm 3 mps 711 mmHg 72%
    10:00 +28°C° 0.4 mm 3 mps 711 mmHg 68%
    11:00 +29°C° 0.4 mm 3 mps 711 mmHg 63%
    12:00 +30°C° 0.4 mm 3 mps 710 mmHg 58%
    13:00 +33°C° 0.4 mm 3 mps 709 mmHg 53%
    14:00 +32°C° 0.1 mm 2 mps 708 mmHg 51%
    15:00 +32°C° 0.1 mm 2 mps 708 mmHg 50%
    16:00 +32°C° 0.1 mm 2 mps 708 mmHg 48%
    17:00 +30°C° 0.2 mm 2 mps 708 mmHg 56%
    18:00 +29°C° 0.2 mm 2 mps 708 mmHg 63%
    19:00 +27°C° 0.2 mm 1 mps 709 mmHg 70%
    20:00 +26°C° 0.2 mm 1 mps 709 mmHg 73%
    21:00 +26°C° 0.2 mm 2 mps 709 mmHg 76%
    22:00 +25°C° 0.2 mm 2 mps 709 mmHg 79%
    23:00 +25°C° 0 mm 2 mps 709 mmHg 80%

    26 September, Tuesday

    Time Temperature Precipitation Wind Pressure Humidity
    00:00 +24°C° 0 mm 2 mps 709 mmHg 81%
    01:00 +24°C° 0 mm 2 mps 708 mmHg 83%
    02:00 +24°C° 0 mm 2 mps 708 mmHg 83%
    03:00 +24°C° 0 mm 2 mps 708 mmHg 83%
    04:00 +24°C° 0 mm 2 mps 708 mmHg 83%
    05:00 +24°C° 0 mm 2 mps 709 mmHg 82%
    06:00 +24°C° 0 mm 3 mps 709 mmHg 80%
    07:00 +25°C° 0 mm 3 mps 710 mmHg 79%
    08:00 +27°C° 0 mm 3 mps 710 mmHg 70%
    09:00 +29°C° 0 mm 3 mps 710 mmHg 61%
    10:00 +31°C° 0 mm 2 mps 711 mmHg 52%
    11:00 +32°C° 0.5 mm 2 mps 710 mmHg 50%
    12:00 +34°C° 0.5 mm 2 mps 709 mmHg 48%
    13:00 +34°C° 0.5 mm 2 mps 708 mmHg 46%
    14:00 +34°C° 0.2 mm 2 mps 708 mmHg 47%
    15:00 +34°C° 0.2 mm 2 mps 707 mmHg 48%
    16:00 +32°C° 0.2 mm 2 mps 707 mmHg 49%
    17:00 +31°C° 0.3 mm 2 mps 707 mmHg 56%
    18:00 +29°C° 0.3 mm 1 mps 708 mmHg 62%
    19:00 +27°C° 0.3 mm 1 mps 708 mmHg 69%
    20:00 +27°C° 0.8 mm 1 mps 708 mmHg 73%
    21:00 +26°C° 0.8 mm 1 mps 709 mmHg 77%
    22:00 +25°C° 0.8 mm 1 mps 709 mmHg 82%
    23:00 +25°C° 1.7 mm 1 mps 709 mmHg 83%
    Show more